{"data":{"norad_id":58750,"intl_designator":"2024-005Y","name":"STARLINK-31179","alt_names":[],"object_type":"PAYLOAD","status":"ACTIVE","operator":null,"country":"US","launch_date":"2024-01-07","launch_site_code":"AFETR","launch_vehicle":null,"mission":null,"orbit_class":"UNKNOWN","rcs_meters":null,"size_class":null,"mass_kg":null,"dimensions":null,"purposes":["comms"],"wikipedia_slug":null,"has_3d_model":false,"image_url":null,"decayed_at":null,"tle_current":{"epoch":"2026-09-20T05:31:09.020928Z","epoch_age_seconds":176184,"freshness":"STALE","line1":"1 58750U 24005Y   26263.22996552  .00000013  00000+0  99914-5 0  9995","line2":"2 58750  43.0020 201.3109 0001512 268.9428  91.1251 15.27576844150194","mean_motion":15.27576844,"eccentricity":0.0001512,"inclination_deg":43.002,"raan_deg":201.3109,"arg_perigee_deg":268.9428,"mean_anomaly_deg":91.1251,"bstar":9.9914e-6,"rev_number":15019,"period_min":94.266943470374,"perigee_km":482.02113348869,"apogee_km":484.09595902188,"semimajor_km":6861.1955462553,"source":"CELESTRAK","updated_at":"2026-09-21T09:00:33.956054Z"}}}